Baltimore Martin, MD

4:26 AM EDT on March 28, 2017 (GMT -0400)
Martin State

Weather History for KMTN - August, 2013

Change the Weather History Date:

Saturday, August 24, 2013

  Actual Average Record
Temperature  
Mean Temperature 70 °F -  
Max Temperature 80 °F 81 °F 91 °F (1998)
Min Temperature 60 °F 66 °F 57 °F (1997)
Cooling Degree Days 5    
Growing Degree Days 20 (Base 50)    
Moisture  
Dew Point 60 °F    
Average Humidity 76    
Maximum Humidity 94    
Minimum Humidity 45    
Precipitation  
Precipitation 0.00 in - - ()
Sea Level Pressure  
Sea Level Pressure 30.23 in    
Wind  
Wind Speed 3 mph (NNE)    
Max Wind Speed 9 mph    
Max Gust Speed -    
Visibility 10 miles    
Events      
Averages and records for this station are not official NWS values.
T = Trace of Precipitation, MM = Missing Value Source: NWS Daily Summary

Daily Weather History Graph

Daily Weather History Graph

Search for Another Location

Airport or City:

Trip Planner

Search our weather history database for the weather conditions in past years. The results will help you decide how hot, cold, wet, or windy it might be!

Date:

Astronomy

Aug. 24, 2013 Rise Set
Actual Time 6:26 AM EDT 7:48 PM EDT
Civil Twilight 5:58 AM EDT 8:16 PM EDT
Nautical Twilight 5:25 AM EDT 8:49 PM EDT
Astronomical Twilight 4:50 AM EDT 9:24 PM EDT
Moon 9:42 PM EDT (8/24) 10:22 AM EDT (8/24)
Length of Visible Light 14h 17m
Length of Day
13h 21m
Waning Gibbous, 84% of the Moon is Illuminated
Aug 24
Waning Gibbous
Aug 28
Last Quarter
Sep 5
New
Sep 12
First Quarter
Sep 19
Full

Hourly Weather History & Observations

Time (EDT) Temp. Heat Index Dew Point Humidity Pressure Visibility Wind Dir Wind Speed Gust Speed Precip Events Conditions
12:00 AM 64.4 °F - 62.6 °F 94% 30.12 in 10.0 mi WNW 3.5 mph - N/A   Clear
12:21 AM 64.4 °F - 62.6 °F 94% 30.13 in 10.0 mi Calm Calm - N/A   Clear
12:39 AM 64.4 °F - 62.6 °F 94% 30.13 in 10.0 mi Calm Calm - N/A   Clear
1:00 AM 64.4 °F - 60.8 °F 88% 30.14 in 10.0 mi NW 5.8 mph - N/A   Clear
1:21 AM 64.4 °F - 60.8 °F 88% 30.13 in 10.0 mi NW 3.5 mph - N/A   Clear
1:39 AM 64.4 °F - 60.8 °F 88% 30.13 in 10.0 mi Calm Calm - N/A   Clear
2:00 AM 62.6 °F - 60.8 °F 94% 30.13 in 10.0 mi WNW 3.5 mph - N/A   Clear
2:21 AM 62.6 °F - 59.0 °F 88% 30.14 in 10.0 mi WNW 3.5 mph - N/A   Clear
2:39 AM 62.6 °F - 59.0 °F 88% 30.15 in 10.0 mi Calm Calm - N/A   Clear
3:00 AM 62.6 °F - 59.0 °F 88% 30.15 in 10.0 mi Calm Calm - N/A   Clear
3:21 AM 62.6 °F - 59.0 °F 88% 30.15 in 10.0 mi West 3.5 mph - N/A   Clear
3:39 AM 60.8 °F - 57.2 °F 88% 30.16 in 10.0 mi Calm Calm - N/A   Clear
4:00 AM 62.6 °F - 59.0 °F 88% 30.16 in 10.0 mi Calm Calm - N/A   Clear
4:21 AM 62.6 °F - 59.0 °F 88% 30.17 in 10.0 mi Calm Calm - N/A   Clear
4:39 AM 64.4 °F - 59.0 °F 83% 30.18 in 10.0 mi NW 4.6 mph - N/A   Clear
5:00 AM 64.4 °F - 59.0 °F 83% 30.18 in 10.0 mi NW 3.5 mph - N/A   Clear
5:21 AM 60.8 °F - 57.2 °F 88% 30.19 in 10.0 mi NW 4.6 mph - N/A   Clear
5:33 AM 60.8 °F - 57.2 °F 88% 30.19 in 10.0 mi NW 4.6 mph - N/A   Clear
5:50 AM 62.6 °F - 57.2 °F 82% 30.20 in 10.0 mi NW 4.6 mph - N/A   Clear
6:45 AM 62.6 °F - 57.2 °F 82% 30.22 in 10.0 mi Calm Calm - N/A   Clear
7:45 AM 66.2 °F - 57.2 °F 73% 30.25 in 10.0 mi Calm Calm - N/A   Clear
8:45 AM 69.8 °F - 60.8 °F 73% 30.27 in 10.0 mi NE 3.5 mph - N/A   Clear
9:45 AM 73.4 °F - 62.6 °F 69% 30.28 in 10.0 mi NE 3.5 mph - N/A   Clear
10:50 AM 75.2 °F - 62.6 °F 65% 30.29 in 10.0 mi NE 4.6 mph - N/A   Clear
11:50 AM 77.0 °F - 64.4 °F 65% 30.29 in 10.0 mi ENE 6.9 mph - N/A   Partly Cloudy
12:50 PM 78.8 °F - 64.4 °F 61% 30.29 in 10.0 mi NNE 3.5 mph - N/A   Scattered Clouds
1:55 PM 80.6 °F 81.8 °F 62.6 °F 54% 30.29 in 10.0 mi NE 5.8 mph - N/A   Scattered Clouds
2:55 PM 80.6 °F 81.8 °F 62.6 °F 54% 30.28 in 10.0 mi ENE 9.2 mph - N/A   Scattered Clouds
3:55 PM 80.6 °F 81.5 °F 60.8 °F 51% 30.29 in 10.0 mi NE 6.9 mph - N/A   Scattered Clouds
4:50 PM 80.6 °F 81.1 °F 59.0 °F 48% 30.29 in 10.0 mi NE 6.9 mph - N/A   Scattered Clouds
5:55 PM 80.6 °F 80.8 °F 57.2 °F 45% 30.29 in 10.0 mi ENE 8.1 mph - N/A   Scattered Clouds
6:55 PM 78.8 °F - 57.2 °F 47% 30.29 in 10.0 mi ENE 6.9 mph - N/A   Scattered Clouds
7:50 PM 73.4 °F - 60.8 °F 65% 30.30 in 10.0 mi Calm Calm - N/A   Partly Cloudy
9:45 PM 71.6 °F - 64.4 °F 78% 30.35 in 10.0 mi Calm Calm - N/A   Clear
10:24 PM 69.8 °F - 60.8 °F 73% 30.35 in 10.0 mi East 5.8 mph - N/A   Clear
10:42 PM 69.8 °F - 60.8 °F 73% 30.35 in 10.0 mi East 5.8 mph - N/A   Clear
11:03 PM 69.8 °F - 60.8 °F 73% 30.35 in 10.0 mi East 5.8 mph - N/A   Clear
11:24 PM 69.8 °F - 60.8 °F 73% 30.36 in 10.0 mi East 4.6 mph - N/A   Clear
11:42 PM 69.8 °F - 62.6 °F 78% 30.36 in 10.0 mi East 4.6 mph - N/A   Clear